Burnet, TX

1:33 AM CST on December 18, 2017 (GMT -0600)
Burnet Municipal-Craddock

Weather History for KBMQ - August, 2012

Change the Weather History Date:

Tuesday, August 28, 2012

  Actual Average Record
Temperature  
Mean Temperature 84 °F -  
Max Temperature 96 °F 90 °F 109 °F (2011)
Min Temperature 73 °F 70 °F 64 °F (2010)
Cooling Degree Days 19    
Growing Degree Days 34 (Base 50)    
Moisture  
Dew Point 68 °F    
Average Humidity 60    
Maximum Humidity 84    
Minimum Humidity 37    
Precipitation  
Precipitation 0.00 in - - ()
Sea Level Pressure  
Sea Level Pressure 29.91 in    
Wind  
Wind Speed 6 mph (NNE)    
Max Wind Speed 15 mph    
Max Gust Speed 18 mph    
Visibility 10 miles    
Events      
Averages and records for this station are not official NWS values.
T = Trace of Precipitation, MM = Missing Value Source: NWS Daily Summary

Daily Weather History Graph

Daily Weather History Graph

Search for Another Location

Airport or City:

Trip Planner

Search our weather history database for the weather conditions in past years. The results will help you decide how hot, cold, wet, or windy it might be!

Date:

Astronomy

Aug. 28, 2012 Rise Set
Actual Time 7:07 AM CDT 8:00 PM CDT
Civil Twilight 6:42 AM CDT 8:24 PM CDT
Nautical Twilight 6:13 AM CDT 8:53 PM CDT
Astronomical Twilight 5:43 AM CDT 9:23 PM CDT
Moon 5:57 PM CDT (8/28) 4:07 AM CDT (8/28)
Length of Visible Light 13h 42m
Length of Day
12h 52m
Waxing Gibbous, 90% of the Moon is Illuminated
Aug 28
Waxing Gibbous
Aug 31
Full
Sep 8
Last Quarter
Sep 15
New
Sep 22
First Quarter

Hourly Weather History & Observations

Time (CDT) Temp. Heat Index Dew Point Humidity Pressure Visibility Wind Dir Wind Speed Gust Speed Precip Events Conditions
12:53 AM 78.1 °F - 69.1 °F 74% 29.96 in 10.0 mi Calm Calm - N/A   Clear
1:53 AM 77.0 °F - 68.0 °F 74% 29.96 in 10.0 mi Calm Calm - N/A   Clear
2:53 AM 75.0 °F - 70.0 °F 84% 29.95 in 10.0 mi WNW 5.8 mph - N/A   Clear
3:53 AM 75.0 °F - 69.1 °F 82% 29.96 in 10.0 mi North 3.5 mph - N/A   Clear
4:53 AM 75.9 °F - 68.0 °F 76% 29.94 in 10.0 mi NNW 5.8 mph - N/A   Clear
5:53 AM 75.9 °F - 68.0 °F 76% 29.95 in 10.0 mi NNW 5.8 mph - N/A   Clear
6:53 AM 73.0 °F - 68.0 °F 84% 29.96 in 10.0 mi WNW 4.6 mph - N/A   Clear
7:53 AM 73.0 °F - 68.0 °F 84% 29.96 in 10.0 mi WNW 5.8 mph - N/A   Clear
8:53 AM 81.0 °F 83.8 °F 68.0 °F 65% 29.96 in 10.0 mi NNW 10.4 mph - N/A   Clear
9:53 AM 84.9 °F 88.8 °F 69.1 °F 59% 29.97 in 10.0 mi NNE 15.0 mph - N/A   Clear
10:53 AM 88.0 °F 91.4 °F 68.0 °F 51% 29.97 in 10.0 mi NNE 10.4 mph - N/A   Clear
11:53 AM 89.1 °F 92.1 °F 66.9 °F 48% 29.96 in 10.0 mi North 8.1 mph - N/A   Partly Cloudy
12:53 PM 91.9 °F 93.3 °F 64.0 °F 39% 29.94 in 10.0 mi NE 5.8 mph - N/A   Partly Cloudy
1:53 PM 93.0 °F 95.9 °F 66.0 °F 41% 29.91 in 10.0 mi NNE 12.7 mph 18.4 mph N/A   Clear
2:53 PM 95.0 °F 97.4 °F 64.9 °F 37% 29.89 in 10.0 mi NNE 11.5 mph 17.3 mph N/A   Scattered Clouds
3:53 PM 88.0 °F 91.4 °F 68.0 °F 51% 29.88 in 10.0 mi ENE 11.5 mph - 0.00 in   Mostly Cloudy
4:53 PM 89.1 °F 92.1 °F 66.9 °F 48% 29.86 in 10.0 mi NE 9.2 mph - N/A   Overcast
5:53 PM 91.0 °F 93.8 °F 66.0 °F 44% 29.84 in 10.0 mi NE 10.4 mph - N/A   Clear
6:53 PM 90.0 °F 92.4 °F 66.0 °F 45% 29.83 in 10.0 mi NE 8.1 mph - N/A   Mostly Cloudy
7:53 PM 87.1 °F 89.9 °F 66.9 °F 51% 29.84 in 10.0 mi NNE 12.7 mph - N/A   Partly Cloudy
8:53 PM 84.9 °F 87.1 °F 66.0 °F 53% 29.85 in 10.0 mi NNE 8.1 mph - N/A   Clear
9:53 PM 84.0 °F 87.0 °F 68.0 °F 58% 29.86 in 10.0 mi NNE 9.2 mph - N/A   Clear
10:53 PM 82.9 °F 86.5 °F 69.1 °F 63% 29.87 in 10.0 mi NNE 11.5 mph - N/A   Clear
11:53 PM 82.9 °F 86.5 °F 69.1 °F 63% 29.87 in 10.0 mi NNE 9.2 mph - N/A   Clear